Location: Genivolta
(45.3333°N, 9.8833°E)
Time: 06:15:36
(UTC+00:00)

Daily predictions for brighter satellites

Satellite Brightness Start Highest point End
(mag) Time Altitude Azimuth Time Altitude Azimuth Time Altitude Azimuth
Okean O Rocket 1.7 16:34:49 10° SSE 16:39:11 57° ENE 16:43:33 10° N
CZ-4B R/B 2.8 16:37:36 10° NE 16:40:10 20° E 16:42:41 10° SE
YAOGAN 6 3.7 16:37:37 10° S 16:41:03 50° W 16:44:34 10° NNW
SMAP 3.0 16:36:32 10° SSE 16:41:10 81° ENE 16:45:51 10° NNW
Cosmos 1626 2.1 16:38:10 10° S 16:41:51 87° E 16:45:34 10° N
Cosmos 773 Rocket 4.1 16:37:03 10° NNW 16:42:05 50° ENE 16:47:04 10° SE
SeaSat 1 4.2 16:37:58 10° N 16:42:07 28° NW 16:46:15 10° WSW
CZ-4B R/B 3.2 16:37:41 10° SSE 16:43:12 77° ENE 16:48:51 10° NNW
SL-24 R/B 4.1 16:39:29 10° SSE 16:43:46 72° ENE 16:48:23 10° N
Aureole 2 Rocket 4.2 16:45:26 10° ESE 16:46:32 11° E 16:47:38 10° ENE
AQUARIUS 4.1 16:43:37 10° SSE 16:48:06 83° ENE 16:52:37 10° NNW
Cosmos 2297 Rocket 4.5 16:45:59 10° W 16:49:30 17° NW 16:53:03 10° N
Cosmos 1603 3.9 16:45:30 10° NNW 16:51:14 82° WSW 16:56:58 10° SSE
Meteor 2-10 Rocket 4.2 16:46:50 10° N 16:51:54 35° ENE 16:56:44 10° SE
CZ-2D R/B 4.0 16:52:36 10° SE 16:56:00 30° ENE 16:59:24 10° N
Cosmos 1606 Rocket 3.6 16:52:52 10° N 16:57:14 62° E 17:01:36 10° SSE
YAOGAN 1 3.8 16:55:36 10° ESE 16:58:46 20° ENE 17:01:56 10° NNE
H-2A R/B 2.1 16:54:20 10° NNE 16:58:49 89° WNW 17:03:11 10° SSW
Cosmos 1892 Rocket 4.0 16:54:53 10° SSE 16:58:53 38° E 17:02:55 10° NNE
USA 234 4.2 16:53:19 10° ENE 16:58:56 32° N 17:04:35 10° WNW
TELKOM 3 4.4 16:57:19 10° SSW 16:59:19 26° SE 17:01:04 13° E
FengYun 1-2 T 4.3 16:55:12 10° SSE 17:00:45 87° ENE 17:06:24 10° NNW
ATLAS 5 CENTAUR R/B 1.9 16:56:55 10° SW 17:00:52 60° NW 17:05:21 10° NNE
CZ-4C R/B 4.2 16:59:40 10° N 17:02:38 39° WNW 17:05:36 10° SW
SL-14 R/B 3.6 17:00:31 10° SSW 17:04:21 69° W 17:08:16 10° N
Helios 1A Rocket 4.3 17:01:49 10° ESE 17:04:39 18° ENE 17:07:29 10° NNE
RESURS DK-1 3.8 17:02:24 10° WSW 17:06:14 36° NW 17:10:05 10° NNE
MOS 1 Rocket 3.8 17:04:18 10° NNE 17:08:12 32° E 17:12:02 10° SSE
ATLAS 3B R/B 3.8 17:02:23 10° NW 17:09:07 52° WSW 17:16:05 10° SSE
Cosmos 2228 3.0 17:04:56 10° N 17:09:13 88° WSW 17:13:30 10° S
BREEZE-M DEB (TANK) 4.2 17:08:13 10° W 17:10:37 23° SSW 17:13:24 10° SSE
Cosmos 2142 Rocket 4.5 17:05:08 10° N 17:11:21 88° E 17:17:28 10° S
Meteor 2-5 Rocket 4.0 17:07:41 10° SSW 17:13:15 71° WNW 17:18:47 10° N
SKYMED 2 3.8 17:09:57 10° NNE 17:14:12 50° E 17:18:24 10° S
CZ-4C R/B 3.7 17:10:08 10° W 17:14:44 29° NNW 17:20:09 10° NNE
Cosmos 1538 Rocket 4.0 17:10:42 10° NNW 17:15:49 56° ENE 17:20:53 10° SE
Aureole 3 4.1 17:13:12 10° NNE 17:15:58 21° ENE 17:18:26 10° ESE
SJ 16-02 2.3 17:12:29 10° SSE 17:16:12 27° E 17:18:56 15° NE
CZ-3B R/B 2.7 17:15:03 10° NNW 17:17:16 28° NNE 17:20:09 16° E
Nadezhda 4 Rocket 4.3 17:11:44 10° SSE 17:17:32 42° E 17:23:20 10° NNE
Cosmos 1777 Rocket 4.0 17:14:10 10° SSW 17:19:24 74° ESE 17:24:41 10° NNE
Cosmos 2263 Rocket 3.0 17:15:58 10° SW 17:21:29 50° WNW 17:27:01 10° NNE
YAOGAN 3 4.5 17:17:11 10° SSE 17:21:31 75° ENE 17:25:54 10° N
Cosmos 1455 2.8 17:23:12 10° N 17:26:41 33° ENE 17:30:09 10° SE
Cosmos 2058 Rocket 3.0 17:24:12 10° N 17:28:41 65° E 17:33:10 10° SSE
Cosmos 1300 4.2 17:27:15 10° NNW 17:30:51 40° W 17:34:25 10° SSW
X-37B 1.9 17:29:24 10° SW 17:32:10 28° SSE 17:33:14 22° ESE
Meteor 2-13 Rocket 4.5 17:30:02 10° SSE 17:35:57 56° E 17:41:56 10° NNE
ARGOS 3.7 17:32:11 10° SE 17:37:00 35° ENE 17:41:51 10° N
Okean 1-7 Rocket 3.5 17:35:52 10° S 17:40:22 71° E 17:44:57 10° NNE
CREW DRAGON DEMO-1 DEB 3.6 17:39:06 10° NW 17:41:46 32° NNE 17:41:52 32° NNE
Lacrosse 5 1.9 17:37:01 10° NW 17:42:02 58° NE 17:45:00 24° ESE
NOSS 3-1 (C) 4.5 17:35:38 10° NNW 17:42:23 40° NE 17:47:11 22° E
Cosmos 1939 Rocket 3.9 17:40:09 10° S 17:44:10 50° W 17:48:09 10° NNW
Cosmos 1726 Rocket 4.4 17:39:55 10° NNW 17:44:10 53° W 17:48:26 10° S
ISS -3.4 17:41:00 10° SW 17:44:16 48° SE 17:45:00 39° ESE
ERS-2 2.0 17:42:03 16° NNE 17:44:51 67° ESE 17:48:27 10° S
CZ-2C R/B 3.6 17:45:49 26° E 17:46:35 27° E 17:51:15 10° SSE
CSL-04 Debris 4.4 17:42:00 10° SE 17:47:03 43° ENE 17:52:08 10° N
PSLV R/B 4.0 17:43:31 13° NNE 17:47:14 58° E 17:51:23 10° S
EXPRESS MD2 4.1 17:39:33 10° WNW 17:47:44 82° SSW 17:50:21 23° ESE
COSMOS 2455 2.9 17:42:47 10° SSW 17:48:49 84° WNW 17:54:02 15° NNE
Cosmos 1626 Rocket 3.7 17:47:25 10° SSE 17:51:37 48° E 17:54:01 23° NNE
Cosmos 1844 3.8 17:48:14 10° S 17:53:43 57° ESE 17:57:10 23° NE
Cosmos 2026 Rocket 4.3 17:49:06 10° SSE 17:54:39 38° E 18:00:17 10° NNE
IRS-1C Rocket 4.2 17:49:38 10° S 17:54:53 78° WSW 18:00:11 10° NNW
Cosmos 1833 Rocket 4.1 17:51:16 10° N 17:54:41 20° NE 17:54:41 20° NE
CZ-4 R/B 1.3 17:52:17 10° SSE 17:56:24 87° E 18:00:29 10° NNW
Cosmos 2082 Rocket 4.1 17:54:08 10° N 17:55:55 13° NNE 17:55:55 13° NNE
NOAA 15 4.5 17:52:28 10° SSE 17:57:42 78° ENE 18:02:59 10° NNW
USA 229 DEB 4.5 17:52:40 10° NNW 17:59:16 37° NE 18:01:49 29° ENE
USA 229 4.5 17:52:46 10° NNW 17:59:22 37° NE 18:01:52 29° ENE
COSMO-SKYMED 1 3.4 17:58:04 10° N 18:02:17 50° WNW 18:06:29 10° SSW
DMSP B5D1-3 4.4 18:01:30 16° NNE 18:05:30 61° ESE 18:10:32 10° S
USA 267 3.9 18:04:12 30° E 18:06:01 35° SE 18:11:54 10° SSW
CZ-4B R/B 3.7 18:09:32 10° NNW 18:12:20 24° WNW 18:15:05 10° SW
Okean-O 2.8 18:08:07 10° S 18:12:32 73° WSW 18:16:59 10° NNW
CZ-2C R/B 4.0 18:08:59 10° S 18:14:05 51° W 18:19:31 10° NNW
NOSS 3-1 (A) 4.5 18:08:09 10° NNW 18:14:56 40° NE 18:16:57 35° ENE
Cosmos 1844 Rocket 2.7 18:10:04 10° SSW 18:15:44 81° WNW 18:19:24 23° NNE
H-2A R/B 2.0 18:11:30 10° S 18:16:28 80° WSW 18:21:35 10° NNW
Cosmos 923 Rocket 3.9 18:12:10 10° NNW 18:17:33 85° ENE 18:22:52 10° SSE
Meteor 1-21 Rocket 4.1 18:12:39 10° S 18:18:11 87° W 18:23:47 10° N
Aureole 2 Rocket 3.6 18:16:20 10° SW 18:19:07 34° WNW 18:19:29 33° NW
Cosmos 1689 Rocket 3.5 18:20:00 36° WSW 18:20:00 36° WSW 18:21:59 10° SSW
Cosmos 2195 Rocket 4.4 18:13:53 10° S 18:20:10 71° E 18:26:29 10° NNE
Cosmos 158 Rocket 4.1 18:17:35 10° NNW 18:22:56 80° WSW 18:28:19 10° SSE
Meteor 2-8 Rocket 4.3 18:17:14 10° N 18:23:19 70° E 18:29:24 10° SSE
Cosmos 1898 Rocket 3.6 18:18:52 10° S 18:23:42 53° ESE 18:23:42 53° ESE
Cosmos 1680 Rocket 3.3 18:19:41 10° NNW 18:24:57 75° ENE 18:26:36 44° SE
Cosmos 1627 Rocket 4.3 18:23:54 10° S 18:30:02 75° E 18:36:17 10° NNE
Cosmos 2098 Rocket 4.3 18:24:25 10° S 18:31:19 63° E 18:38:40 10° NNE
Cosmos 1602 Rocket 3.4 18:27:20 10° S 18:31:34 85° SW 18:31:34 85° SW
Cosmos 1818 3.9 18:27:31 10° SW 18:32:54 64° NW 18:34:52 39° NNE
YAOGAN 1 3.7 18:30:27 10° S 18:34:34 43° W 18:38:43 10° NNW
Cosmos 1428 Rocket 4.3 18:28:47 10° S 18:35:02 76° E 18:41:21 10° NNE
CSL-04 Rocket 3.7 18:32:54 10° S 18:38:17 77° WSW 18:43:47 10° NNW
Helios 1A Rocket 3.9 18:35:29 10° S 18:39:27 46° W 18:43:28 10° NNW
USA 234 3.6 18:40:19 45° NE 18:41:04 47° NNE 18:47:16 10° NW
Cosmos 1092 Rocket 4.2 18:39:01 10° SSW 18:45:12 70° W 18:51:23 10° N
ATLAS 5 CENTAUR R/B 4.0 18:44:06 10° WNW 18:46:35 15° NNW 18:47:37 14° N
Iridium 4 Rocket 3.8 18:41:27 10° N 18:47:09 72° W 18:52:23 10° S
SJ 16-02 3.0 18:50:44 10° SW 18:54:40 31° WNW 18:55:59 26° NNW
Cosmos 2344 4.2 18:45:37 10° NW 18:54:53 72° NE 18:59:35 43° ESE
Cosmos 2112 Rocket 4.3 18:57:11 10° NNW 19:02:18 62° WSW 19:02:18 62° WSW
CZ-4C R/B 4.5 19:01:56 10° NW 19:05:31 16° N 19:06:30 15° N
X-37B 4.1 19:05:22 10° WSW 19:05:31 11° WSW 19:05:31 11° WSW
COSMOS 2406 4.4 19:11:33 10° NNW 19:14:49 35° NNW 19:14:49 35° NNW
ISS -0.1 19:17:56 10° W 19:17:58 10° W 19:17:58 10° W
Lacrosse 5 3.5 19:20:22 10° WNW 19:24:16 30° WSW 19:24:16 30° WSW
CZ-2C R/B 3.6 19:27:19 47° WNW 19:27:19 47° WNW 19:32:23 10° SW
NOSS 3-1 (C) 4.2 19:26:18 10° NW 19:33:52 69° WSW 19:34:40 66° SSW
Cosmos 2082 Rocket 4.4 19:36:39 10° NNW 19:37:48 16° NNW 19:37:48 16° NNW
USA 267 4.1 19:51:34 45° WSW 19:51:34 45° WSW 19:55:54 10° WSW
USA 229 DEB 4.3 19:43:29 10° NW 19:49:18 57° WNW 19:49:18 57° WNW
USA 229 4.3 19:43:35 10° NW 19:49:21 57° WNW 19:49:21 57° WNW
